Preview of NWS' New Version of Forecast
This preview is not operational and should not be used for support decisions.

Regional Weather Roundup (RWR)

Issued by National Weather Service (NWS)

                            
000
ASCA42 TJSJ 191710
RWRPR 
PUERTO RICO/U.S. VIRGIN ISLANDS HOURLY WEATHER ROUNDUP
NATIONAL WEATHER SERVICE SAN JUAN PR
100 PM AST WED JUN 19 2019

PRZ001>002-007>008-010-191800-
PUERTO RICO
  
CITY           SKY/WX    TMP DP  RH WIND       PRES   REMARKS
SAN JUAN LMM   MOSUNNY   84  77  79 NE21      30.07F HX  94           
AGUADILLA      MOSUNNY   86  77  74 E20G26    30.08F HX  97           
CEIBA          PTSUNNY   90  75  62 E12       30.10F HX 100           
$$

VIZ001>002-191800-
U.S. VIRGIN ISLANDS
  
CITY           SKY/WX    TMP DP  RH WIND       PRES   REMARKS
CHARLOTTE AMA  PTSUNNY   88  75  66 E12       30.07F HX  97           
CHRISTIANSTED  MOSUNNY   90  73  58 E18       30.08F HX  98           
$$

HOURLY WEATHER ROUNDUP FOR THE NEWS MEDIA
  
CITY           SKY/WX    TMP DP  RH WIND       PRES   REMARKS
ORLANDO        FAIR      89  71  55 SW14G25   29.99F HX  95           
NEW YORK       CLOUDY    68  67  96 SE9       29.87F                  
NEWARK         CLOUDY    70  65  84 SE7       29.86F                  
CHICAGO        PTSUNNY   69  59  70 NE13      29.78F                  
HARTFORD       CLOUDY    69  62  78 S3        29.88S                  
BOSTON         CLOUDY    68  62  81 E10       29.88F                  
DALLAS         PTSUNNY   86  74  67 S12G20    29.80F HX  94           
PHILADELPHIA   PTSUNNY   80  69  69 VRB3      29.81F                  
LOS ANGELES    CLOUDY    68  58  70 W3        30.00R                  
WASHINGTON DC  PTSUNNY   81  69  67 S9        29.81F